Location: Peebles
(55.6412°N, 3.1714°W)
Time: 08:55:41
(UTC+01:00)

FENGYUN 1C DEB - Pass Details

Date: 11 July 2022
Orbit: 757 x 834 km, 99.1° (Epoch: 04 August)

Event Time Altitude Azimuth Distance (km) Brightness Sun altitude
Rises 03:41:20 0° 167° (SSE) 3,334 ? -6.5°
Reaches altitude 10° 03:43:41 10° 169° (S) 2,396 ? -6.3°
Maximum altitude 03:48:59 72° 255° (WSW) 843 ? -5.9°
Drops below altitude 10° 03:54:12 10° 340° (NNW) 2,361 ? -5.5°
Sets 03:56:31 0° 342° (NNW) 3,283 ? -5.3°
